[[{"header":{"parameterUnit":"m.s-1","parameterCategory":1,"la1":30.2991,"la2":30.254,"lo1":-89.0895,"lo2":-89.0444,"dy":0.0017,"dx":0.0017,"nx":28,"ny":28,"refTime":"2025-04-07T21:00:00:Z","depth":0,"parameterNumber":2,"parameterNumberName":"U-component_of_WINDS"},"data":[0,0,0,0,0,0,0,0,0,0,0,0,0,0,0,0,0,0,0,0,0,0,0,0,0,0,0,0,0,0,0,0,0,0,0,0,0,0,0,0,0,0,0,0,0,0,0,0,0,0,0,0,0,0,0,0,0,0,-0.9611,-0.9613,0,-0.9843,-0.9845,-0.9848,-0.989,-0.9888,-0.9886,-0.9884,-1.0127,-1.0135,-1.0143,0,0,0,0,0,0,0,0,0,0,0,0,0,-0.9208,-0.9215,-0.961,-0.9613,-0.9616,-0.9842,-0.9845,-0.9849,-0.989,-0.9888,-0.9885,-0.9883,-1.0124,-1.0134,-1.0143,0,0,0,0,0,0,0,0,0,0,0,0,0,-0.9406,-0.9217,-0.961,-0.9664,-0.9671,-0.9842,-0.9846,-0.9849,-0.989,-0.9888,-0.9885,-0.9882,-1.0121,-1.0133,-1.0145,-1.0279,0,0,-1.0183,-1.0188,0,0,0,0,0,0,0,0,-0.9394,-0.942,-0.9653,-0.966,-0.9669,-0.9834,-0.9792,-0.9994,-0.9891,-0.9807,-0.9884,-0.9881,-1.0032,-1.0051,-1.0101,-1.0291,-1.0301,-1.0184,-1.0191,-1.0197,-1.02,0,0,0,0,0,0,0,-0.9381,-0.9411,-0.9702,-0.9656,-0.9666,-0.9678,-0.9703,-0.9831,-0.9933,-0.9814,-0.9818,-0.9845,-1.0036,-1.0089,-1.0107,-1.0305,-1.0183,-1.0194,-1.0202,-1.0207,-1.0617,-1.0621,0,0,0,0,0,0,-0.9357,-0.9399,-0.9695,-0.9709,-0.9521,-0.9688,-0.9716,-0.9784,-0.9932,-0.9952,-0.9847,-0.9846,-1.007,-1.0093,-1.0116,-1.0285,-1.0197,-1.0208,-1.0215,-1.0614,-1.0618,-1.0622,0,0,0,0,0,0,-0.9348,-0.9383,-0.9686,-0.9555,-0.9595,-0.9698,-0.9774,-0.979,-0.9844,-0.9956,-0.9975,-0.9883,-1.0068,-1.0099,-1.0238,-1.0293,-1.0214,-1.0225,-1.061,-1.0615,-1.062,-1.0621,0,0,0,0,0,0,-0.9336,-0.9379,-0.943,-0.9556,-0.9601,-0.9803,-0.9778,-0.9797,-0.9865,-0.9865,-0.9995,-1.0014,-1.0068,-1.022,-1.0251,-1.0309,-1.0235,-1.0605,-1.0612,-1.0618,-1.0617,-1.0626,-1.0634,0,0,0,0,0,-0.9321,-0.9422,-0.9432,-0.9468,-0.9667,-0.9806,-0.9832,-0.9891,-0.9869,-0.9922,-0.9994,-1.001,-1.0282,-1.0234,-1.0269,-1.0332,-1.0602,-1.061,-1.0618,-1.0613,-1.0624,-1.0633,0,0,0,0,0,0,-0.9301,-0.9439,-0.9453,-0.9596,-0.9689,-0.9812,-0.9881,-0.9901,-1.0003,-0.9999,-1.007,-1.0099,-1.0236,-1.0298,-1.0241,-1.047,-1.0441,-1.0456,-1.0425,-1.0436,-1.0445,-1.0428,-1.0245,0,0,0,0,0,-0.9313,-0.9413,-0.9529,-0.9644,-0.969,-0.9777,-0.984,-0.9877,-0.9977,-1.0017,-1.0099,-1.0196,-1.0304,-1.0373,-1.0479,-1.0625,-1.0655,-1.0686,-1.0694,-1.0701,-1.0714,-1.0798,-1.0813,-1.0648,-1.0647,-1.0647,0,0,-0.934,-0.9428,-0.9486,-0.9643,-0.9719,-0.9822,-0.981,-0.9919,-0.9997,-1.0034,-1.0171,-1.0234,-1.0348,-1.0492,-1.0559,-1.0548,-1.0766,-1.0711,-1.0715,-1.0725,-1.0807,-1.0823,-1.0837,-1.0653,-1.0652,-1.0651,0,0,-0.9441,-0.9516,-0.9622,-0.9698,-0.9813,-0.987,-0.9895,-1.0016,-1.006,-1.0197,-1.0227,-1.0322,-1.0505,-1.0585,-1.0649,-1.0781,-1.0799,-1.0813,-1.0857,-1.0938,-1.0951,-1.0963,-1.1012,-1.1028,-1.0825,-1.0825,-1.0825,0,-0.946,-0.9615,-0.9674,-0.9782,-0.9851,-0.9887,-0.9995,-1.0067,-1.021,-1.0258,-1.0242,-1.0474,-1.0552,-1.0716,-1.0748,-1.0799,-1.0831,-1.0799,-1.0944,-1.0957,-1.0969,-1.1016,-1.1034,-1.0826,-1.0826,-1.0826,-1.0826,0,-0.9633,-0.974,-0.9812,-0.9948,-1.0025,-1.0132,-1.0209,-1.028,-1.0311,-1.0371,-1.0512,-1.0607,-1.0733,-1.0774,-1.0806,-1.0943,-1.0933,-1.093,-1.0902,-1.0985,-1.103,-1.1049,-1.0827,-1.0827,-1.0827,-1.0827,0,0,-0.9729,-0.9896,-0.9922,-0.9985,-1.0114,-1.0199,-1.0308,-1.043,-1.049,-1.0588,-1.0683,-1.0837,-1.0835,-1.0909,-1.095,-1.102,-1.112,-1.101,-1.1013,-1.1028,-1.1279,-1.1281,-1.1301,-1.1133,-1.1136,-1.1139,-1.127,0,-0.9847,-1.0042,-1.0099,-1.0265,-1.0365,-1.0401,-1.0497,-1.0587,-1.0646,-1.0741,-1.0807,-1.0915,-1.0904,-1.0949,-1.102,-1.1093,-1.1172,-1.1084,-1.1224,-1.1228,-1.1196,-1.1325,-1.1327,-1.1446,-1.1288,-1.1291,-1.1293,0,-1.0011,-1.011,-1.0285,-1.0402,-1.0446,-1.0531,-1.0648,-1.0737,-1.0841,-1.0879,-1.096,-1.0995,-1.1113,-1.1077,-1.1242,-1.1181,-1.1241,-1.1286,-1.1292,-1.1309,-1.1267,-1.1346,-1.1486,-1.1504,-1.1322,-1.1319,-1.1317,0,-1.0065,-1.0243,-1.0371,-1.0423,-1.0562,-1.0621,-1.0682,-1.0783,-1.0853,-1.0955,-1.1001,-1.1116,-1.1179,-1.1268,-1.1334,-1.1301,-1.1493,-1.1462,-1.1529,-1.1528,-1.1569,-1.1566,-1.1722,-1.1606,-1.1605,-1.1605,-1.1605,0,-1.0191,-1.0297,-1.0397,-1.0476,-1.0596,-1.0661,-1.0779,-1.0842,-1.0931,-1.1024,-1.1062,-1.1149,-1.123,-1.1328,-1.138,-1.1509,-1.1537,-1.1573,-1.1586,-1.157,-1.1566,-1.1612,-1.1606,-1.161,-1.1609,-1.1608,-1.1607,0,-1.0272,-1.0343,-1.0485,-1.0605,-1.0637,-1.0721,-1.0824,-1.0903,-1.0963,-1.108,-1.1112,-1.1206,-1.1324,-1.1397,-1.1547,-1.1582,-1.1724,-1.1734,-1.1689,-1.1695,-1.1759,-1.1752,-1.1951,-1.1981,-1.1843,-1.1844,-1.1845,0,-1.0349,-1.0431,-1.0559,-1.0623,-1.0685,-1.0788,-1.0859,-1.0925,-1.0998,-1.1123,-1.1187,-1.1307,-1.1406,-1.1592,-1.1676,-1.1791,-1.1804,-1.1866,-1.1822,-1.1804,-1.1807,-1.1802,-1.1811,-1.1873,-1.1874,-1.1875,-1.1876,0,-1.0478,-1.0509,-1.0608,-1.0721,-1.0804,-1.0896,-1.0988,-1.1039,-1.1122,-1.1202,-1.1322,-1.1398,-1.1551,-1.167,-1.1792,-1.1857,-1.1882,-1.1889,-1.1911,-1.1897,-1.1868,-1.1886,-1.171,-1.1885,-1.1884,-1.1883,-1.1883,-1.1882,-1.056,-1.0635,-1.0737,-1.0848,-1.0923,-1.1009,-1.1089,-1.1158,-1.1258,-1.1387,-1.142,-1.1546,-1.1649,-1.1816,-1.1883,-1.1984,-1.1976,-1.2007,-1.2015,-1.2022,-1.2024,-1.185,-1.2006,-1.2006,-1.2006,-1.2006,-1.2006,0,-1.0692,-1.0759,-1.086,-1.0987,-1.1074,-1.1087,-1.119,-1.1262,-1.1372,-1.1465,-1.1562,-1.17,-1.1816,-1.1907,-1.2027,-1.209,-1.2104,-1.2119,-1.2116,-1.2131,-1.2024,-1.1993,-1.2105,-1.2105,-1.2105,-1.2105,-1.2105,-1.2105,-1.0771,-1.0899,-1.0942,-1.1109,-1.1176,-1.1298,-1.1356,-1.1435,-1.151,-1.1662,-1.1758,-1.1816,-1.191,-1.2036,-1.2143,-1.2168,-1.221,-1.2223,-1.225,-1.2149,-1.2138,-1.2127,-1.2099,-1.2232,-1.2232,-1.2349,-1.235,-1.2351]},{"header":{"parameterUnit":"m.s-1","parameterCategory":1,"la1":30.2991,"la2":30.254,"lo1":-89.0895,"lo2":-89.0444,"dy":0.0017,"dx":0.0017,"nx":28,"ny":28,"refTime":"2025-04-07T21:00:00:Z","depth":0,"parameterNumber":3,"parameterNumberName":"V-component_of_WINDS"},"data":[0,0,0,0,0,0,0,0,0,0,0,0,0,0,0,0,0,0,0,0,0,0,0,0,0,0,0,0,0,0,0,0,0,0,0,0,0,0,0,0,0,0,0,0,0,0,0,0,0,0,0,0,0,0,0,0,0,0,-4.8238,-4.8239,0,-4.8287,-4.8288,-4.8288,-4.8196,-4.8193,-4.819,-4.8187,-4.8237,-4.8241,-4.8245,0,0,0,0,0,0,0,0,0,0,0,0,0,-4.8063,-4.8067,-4.8238,-4.8239,-4.824,-4.8287,-4.8288,-4.8288,-4.8197,-4.8193,-4.8189,-4.8186,-4.8235,-4.824,-4.8245,0,0,0,0,0,0,0,0,0,0,0,0,0,-4.8129,-4.8068,-4.8238,-4.82,-4.8197,-4.8287,-4.8288,-4.8288,-4.8197,-4.8193,-4.8188,-4.8184,-4.8234,-4.824,-4.8246,-4.8376,0,0,-4.8265,-4.8268,0,0,0,0,0,0,0,0,-4.8125,-4.8135,-4.8205,-4.8202,-4.8199,-4.8231,-4.8244,-4.8318,-4.8198,-4.8197,-4.8187,-4.8182,-4.8238,-4.8244,-4.8263,-4.8379,-4.8381,-4.8266,-4.8269,-4.8272,-4.8274,0,0,0,0,0,0,0,-4.8121,-4.8132,-4.8258,-4.8206,-4.8202,-4.8179,-4.8183,-4.8258,-4.8243,-4.8197,-4.819,-4.8197,-4.8236,-4.8257,-4.8264,-4.8381,-4.8265,-4.8271,-4.8275,-4.8277,-4.8602,-4.8607,0,0,0,0,0,0,-4.8121,-4.8129,-4.8256,-4.8259,-4.815,-4.8186,-4.819,-4.8225,-4.8242,-4.824,-4.8201,-4.8193,-4.8249,-4.8256,-4.8265,-4.8416,-4.8272,-4.8278,-4.8281,-4.8597,-4.8603,-4.8608,0,0,0,0,0,0,-4.8118,-4.8133,-4.8254,-4.8192,-4.8206,-4.8194,-4.8233,-4.8229,-4.825,-4.8245,-4.8242,-4.8226,-4.8246,-4.8256,-4.8348,-4.8417,-4.8281,-4.8286,-4.8591,-4.8599,-4.8606,-4.8722,0,0,0,0,0,0,-4.8113,-4.8133,-4.8183,-4.8194,-4.821,-4.8338,-4.8238,-4.8233,-4.8261,-4.825,-4.8267,-4.8266,-4.8243,-4.834,-4.8355,-4.8423,-4.8291,-4.8585,-4.8595,-4.8603,-4.8712,-4.8732,-4.8749,0,0,0,0,0,-4.8107,-4.8215,-4.8186,-4.8202,-4.8272,-4.8342,-4.8351,-4.8322,-4.8267,-4.8316,-4.8313,-4.8265,-4.8407,-4.835,-4.8366,-4.8437,-4.8581,-4.8592,-4.8603,-4.8703,-4.8728,-4.8749,0,0,0,0,0,0,-4.8213,-4.8215,-4.8184,-4.8298,-4.8321,-4.8326,-4.8389,-4.835,-4.8389,-4.8378,-4.834,-4.8345,-4.8444,-4.845,-4.8386,-4.8562,-4.8484,-4.8499,-4.8555,-4.8579,-4.8597,-4.8594,-4.8296,0,0,0,0,0,-4.8249,-4.8306,-4.8305,-4.8406,-4.8418,-4.8402,-4.8431,-4.8407,-4.8429,-4.8438,-4.8441,-4.8463,-4.8512,-4.8546,-4.8591,-4.8712,-4.8713,-4.8768,-4.8787,-4.8803,-4.8816,-4.8877,-4.8901,-4.8644,-4.8644,-4.8644,0,0,-4.8325,-4.8334,-4.8372,-4.8427,-4.8442,-4.85,-4.8411,-4.8477,-4.852,-4.8448,-4.8534,-4.8537,-4.856,-4.8666,-4.8713,-4.8674,-4.8887,-4.8817,-4.8829,-4.8834,-4.8891,-4.8915,-4.8937,-4.8652,-4.8651,-4.8649,0,0,-4.8494,-4.8507,-4.8591,-4.8606,-4.8629,-4.8616,-4.8636,-4.8647,-4.8646,-4.8733,-4.8679,-4.8728,-4.8815,-4.8832,-4.8852,-4.9023,-4.898,-4.9039,-4.9138,-4.9198,-4.9218,-4.9236,-4.9295,-4.9317,-4.9052,-4.9052,-4.9053,0,-4.8586,-4.8673,-4.8639,-4.8708,-4.8733,-4.8669,-4.8753,-4.8769,-4.8806,-4.8824,-4.8779,-4.8884,-4.8895,-4.9003,-4.9044,-4.9063,-4.9084,-4.9037,-4.9218,-4.9236,-4.9252,-4.9308,-4.933,-4.9059,-4.9059,-4.9058,-4.9057,0,-4.8783,-4.8844,-4.8909,-4.8944,-4.8976,-4.9052,-4.9029,-4.9065,-4.9037,-4.9029,-4.9116,-4.9126,-4.9171,-4.9195,-4.9169,-4.9299,-4.9273,-4.9224,-4.9145,-4.9284,-4.9335,-4.9357,-4.9069,-4.9067,-4.9065,-4.9063,0,0,-4.9022,-4.9035,-4.9059,-4.9073,-4.9091,-4.9137,-4.9209,-4.9252,-4.9283,-4.9309,-4.9368,-4.9441,-4.9394,-4.9417,-4.9392,-4.9445,-4.9577,-4.9389,-4.9389,-4.9423,-4.9718,-4.9754,-4.978,-4.9549,-4.9553,-4.9556,-4.9716,0,-4.9188,-4.9312,-4.9282,-4.9405,-4.9459,-4.9397,-4.9459,-4.9477,-4.947,-4.9514,-4.9506,-4.9558,-4.9494,-4.9507,-4.9557,-4.9551,-4.9636,-4.9539,-4.9602,-4.9604,-4.9597,-4.9807,-4.9847,-4.9997,-4.9736,-4.9739,-4.9742,0,-4.9399,-4.9431,-4.9559,-4.9565,-4.9587,-4.9644,-4.9678,-4.9722,-4.9739,-4.973,-4.9754,-4.9718,-4.9788,-4.9708,-4.9802,-4.9736,-4.976,-4.9761,-4.9766,-4.977,-4.9681,-4.9816,-5.0045,-5.0067,-4.9774,-4.9771,-4.9769,0,-4.9558,-4.9634,-4.9719,-4.9733,-4.9743,-4.9784,-4.979,-4.9802,-4.9829,-4.986,-4.9876,-4.9915,-4.9936,-4.9966,-4.994,-4.9885,-5.0038,-4.9956,-5.0032,-5.0032,-5.0067,-5.0065,-5.0301,-5.0084,-5.0083,-5.0083,-5.0082,0,-4.9746,-4.9826,-4.979,-4.9843,-4.993,-4.9893,-4.998,-4.9979,-4.999,-5.004,-4.9989,-5.0037,-5.0001,-5.0045,-5.0026,-5.0105,-5.0116,-5.011,-5.0103,-5.0114,-5.0115,-5.0129,-5.0117,-5.0089,-5.0087,-5.0086,-5.0085,0,-4.9939,-4.9919,-5.0007,-5.0008,-5.001,-5.0074,-5.0074,-5.0122,-5.011,-5.0174,-5.0187,-5.0169,-5.0218,-5.0195,-5.0248,-5.0234,-5.0336,-5.0317,-5.0331,-5.0325,-5.0401,-5.0394,-5.0654,-5.0685,-5.0449,-5.0451,-5.0453,0,-5.0061,-5.0121,-5.0127,-5.0156,-5.0165,-5.0214,-5.024,-5.0205,-5.0235,-5.0257,-5.0302,-5.0346,-5.038,-5.0461,-5.0453,-5.0491,-5.0472,-5.056,-5.0477,-5.0485,-5.0471,-5.0468,-5.0472,-5.0577,-5.058,-5.0582,-5.0584,0,-5.0278,-5.0263,-5.0303,-5.0338,-5.037,-5.0397,-5.0419,-5.0446,-5.0412,-5.0447,-5.0496,-5.0522,-5.0574,-5.0618,-5.0651,-5.0656,-5.0614,-5.0609,-5.0629,-5.064,-5.0645,-5.0642,-5.0375,-5.0604,-5.0602,-5.06,-5.0599,-5.0598,-5.0438,-5.0487,-5.0498,-5.0542,-5.0555,-5.0576,-5.0619,-5.0612,-5.0652,-5.0691,-5.0668,-5.0725,-5.0738,-5.0778,-5.0788,-5.0831,-5.0796,-5.0825,-5.0832,-5.0839,-5.0848,-5.0638,-5.0838,-5.0837,-5.0836,-5.0836,-5.0835,0,-5.0651,-5.0654,-5.0695,-5.0726,-5.0761,-5.0717,-5.0738,-5.077,-5.082,-5.0835,-5.0868,-5.0924,-5.0965,-5.0959,-5.0997,-5.1032,-5.1014,-5.1043,-5.104,-5.1041,-5.0878,-5.0857,-5.1058,-5.1058,-5.1057,-5.1057,-5.1057,-5.1057,-5.0765,-5.0845,-5.0831,-5.0916,-5.0918,-5.0973,-5.0988,-5.1006,-5.1018,-5.1081,-5.1115,-5.111,-5.1116,-5.1153,-5.1189,-5.1185,-5.1201,-5.1238,-5.1228,-5.1075,-5.1053,-5.1032,-5.1012,-5.1242,-5.1242,-5.1387,-5.1388,-5.1389]}]]